Branson, MO

1:24 PM CDT on March 30, 2017 (GMT -0500)
Branson

Weather History for KBBG - September, 2013

Change the Weather History Date:

Monday, September 16, 2013

  Actual Average (KHRO) Record (KHRO)
Temperature  
Mean Temperature 68 °F -  
Max Temperature 73 °F 78 °F 102 °F (1956)
Min Temperature 62 °F 58 °F 39 °F (1996)
Cooling Degree Days 2    
Growing Degree Days 18 (Base 50)    
Moisture  
Dew Point 63 °F    
Average Humidity 84    
Maximum Humidity 100    
Minimum Humidity 65    
Precipitation  
Precipitation 0.00 in - - ()
Sea Level Pressure  
Sea Level Pressure 30.16 in    
Wind  
Wind Speed 3 mph (East)    
Max Wind Speed 9 mph    
Max Gust Speed -    
Visibility 9 miles    
Events Rain , Thunderstorm    
Averages and records for this station are not official NWS values.
T = Trace of Precipitation, MM = Missing Value Source: NWS Daily Summary

Daily Weather History Graph

Daily Weather History Graph

Search for Another Location

Airport or City:

Trip Planner

Search our weather history database for the weather conditions in past years. The results will help you decide how hot, cold, wet, or windy it might be!

Date:

Astronomy

Sep. 16, 2013 Rise Set
Actual Time 6:56 AM CDT 7:18 PM CDT
Civil Twilight 6:30 AM CDT 7:44 PM CDT
Nautical Twilight 5:59 AM CDT 8:14 PM CDT
Astronomical Twilight 5:29 AM CDT 8:45 PM CDT
Moon 5:24 PM CDT (9/16) 3:47 AM CDT (9/16)
Length of Visible Light 13h 13m
Length of Day
12h 22m
Waxing Gibbous, 90% of the Moon is Illuminated
Sep 16
Waxing Gibbous
Sep 19
Full
Sep 26
Last Quarter
Oct 4
New
Oct 11
First Quarter

Hourly Weather History & Observations

Time (CDT) Temp. Dew Point Humidity Pressure Visibility Wind Dir Wind Speed Gust Speed Precip Events Conditions
12:15 AM 73.4 °F 60.8 °F 65% 30.09 in 10.0 mi South 5.8 mph - N/A   Clear
12:35 AM 73.4 °F 60.8 °F 65% 30.09 in 10.0 mi South 5.8 mph - N/A   Clear
12:55 AM 73.4 °F 60.8 °F 65% 30.10 in 10.0 mi Calm Calm - N/A   Clear
1:15 AM 71.6 °F 60.8 °F 69% 30.11 in 10.0 mi North 5.8 mph - N/A   Mostly Cloudy
1:35 AM 69.8 °F 60.8 °F 73% 30.12 in 10.0 mi Calm Calm - N/A   Overcast
1:55 AM 68.0 °F 60.8 °F 78% 30.12 in 10.0 mi Calm Calm - N/A   Mostly Cloudy
2:15 AM 68.0 °F 60.8 °F 78% 30.12 in 10.0 mi Calm Calm - N/A   Scattered Clouds
2:35 AM 68.0 °F 62.6 °F 83% 30.12 in 10.0 mi Calm Calm - N/A   Clear
2:55 AM 68.0 °F 62.6 °F 83% 30.11 in 10.0 mi Calm Calm - N/A   Partly Cloudy
3:15 AM 68.0 °F 60.8 °F 78% 30.11 in 10.0 mi Calm Calm - N/A   Partly Cloudy
3:35 AM 68.0 °F 60.8 °F 78% 30.10 in 10.0 mi Calm Calm - N/A   Mostly Cloudy
3:55 AM 68.0 °F 60.8 °F 78% 30.11 in 10.0 mi Calm Calm - N/A   Overcast
4:15 AM 69.8 °F 60.8 °F 73% 30.11 in 10.0 mi Calm Calm - N/A   Overcast
4:35 AM 68.0 °F 60.8 °F 78% 30.12 in 10.0 mi Calm Calm - N/A   Overcast
4:55 AM 68.0 °F 62.6 °F 83% 30.12 in 10.0 mi Calm Calm - N/A   Overcast
5:15 AM 68.0 °F 60.8 °F 78% 30.12 in 10.0 mi Calm Calm - N/A   Overcast
5:35 AM 68.0 °F 60.8 °F 78% 30.12 in 10.0 mi Calm Calm - N/A   Overcast
5:55 AM 66.2 °F 60.8 °F 83% 30.14 in 10.0 mi NNW 5.8 mph - N/A Thunderstorm Overcast
6:15 AM 66.2 °F 62.6 °F 88% 30.16 in 10.0 mi NW 6.9 mph - N/A   Overcast
6:35 AM 66.2 °F 60.8 °F 83% 30.16 in 10.0 mi Calm Calm - N/A   Overcast
6:48 AM 66.2 °F 60.8 °F 83% 30.17 in 10.0 mi Calm Calm - N/A Thunderstorm Thunderstorm
7:53 AM 66.2 °F 62.6 °F 88% 30.21 in 5.0 mi NNE 4.6 mph - N/A Rain , Thunderstorm Light Thunderstorms and Rain
8:12 AM 64.4 °F 62.6 °F 94% 30.22 in 2.0 mi Calm Calm - N/A Rain Light Rain
8:57 AM 62.6 °F 62.6 °F 100% 30.22 in 4.0 mi East 6.9 mph - N/A Rain Light Rain
9:58 AM 64.4 °F 64.4 °F 100% 30.23 in 5.0 mi East 5.8 mph - N/A Rain Light Rain
10:55 AM 64.4 °F 64.4 °F 100% 30.24 in 6.0 mi SSE 4.6 mph - N/A   Overcast
11:46 AM 66.2 °F 64.4 °F 94% 30.24 in 6.0 mi SSE 5.8 mph - N/A   Overcast
12:45 PM 66.2 °F 64.4 °F 94% 30.22 in 8.0 mi ESE 9.2 mph - N/A   Overcast
1:48 PM 68.0 °F 64.4 °F 88% 30.23 in 10.0 mi Calm Calm - N/A   Overcast
2:52 PM 69.8 °F 64.4 °F 83% 30.20 in 10.0 mi East 5.8 mph - N/A   Overcast
3:48 PM 71.6 °F 64.4 °F 78% 30.18 in 10.0 mi East 6.9 mph - N/A   Overcast
4:46 PM 69.8 °F 62.6 °F 78% 30.18 in 10.0 mi ESE 4.6 mph - N/A   Overcast
5:45 PM 71.6 °F 62.6 °F 73% 30.16 in 10.0 mi Calm Calm - N/A   Mostly Cloudy
6:46 PM 69.8 °F 64.4 °F 83% 30.17 in 10.0 mi Calm Calm - N/A   Mostly Cloudy
7:47 PM 68.0 °F 66.2 °F 94% 30.17 in 10.0 mi Calm Calm - N/A   Mostly Cloudy
8:45 PM 68.0 °F 64.4 °F 88% 30.18 in 10.0 mi Calm Calm - N/A   Overcast
9:15 PM 68.0 °F 66.2 °F 94% 30.19 in 10.0 mi Calm Calm - N/A   Mostly Cloudy
9:35 PM 68.0 °F 66.2 °F 94% 30.19 in 10.0 mi Calm Calm - N/A   Mostly Cloudy
9:55 PM 68.0 °F 66.2 °F 94% 30.19 in 10.0 mi Calm Calm - N/A   Mostly Cloudy
10:15 PM 68.0 °F 66.2 °F 94% 30.19 in 10.0 mi Calm Calm - N/A   Scattered Clouds
10:35 PM 68.0 °F 66.2 °F 94% 30.19 in 10.0 mi East 6.9 mph - N/A   Mostly Cloudy
10:55 PM 68.0 °F 66.2 °F 94% 30.20 in 10.0 mi East 3.5 mph - N/A   Mostly Cloudy
11:15 PM 68.0 °F 66.2 °F 94% 30.20 in 10.0 mi East 8.1 mph - N/A   Overcast
11:35 PM 68.0 °F 66.2 °F 94% 30.20 in 10.0 mi East 5.8 mph - N/A   Overcast
11:55 PM 68.0 °F 66.2 °F 94% 30.20 in 10.0 mi East 5.8 mph - N/A   Overcast